Location: Rochester
(43.1547°N, 77.6158°W)
Time: 17:00:22
(UTC-05:00)

ISS - Visible Passes

Search period start: 22 November 2017 00:00
Search period end: 02 December 2017 00:00
Orbit: 402 x 407 km, 51.6° (Epoch: 23 November)

Date Brightness Start Highest point End Pass type
(mag) Time Alt. Az. Time Alt. Az. Time Alt. Az.
26 Nov -2.2 18:34:01 10° SSW 18:35:51 25° S 18:35:51 25° S visible
27 Nov -2.0 17:42:29 10° S 17:44:50 18° SE 17:45:56 16° ESE visible
27 Nov -0.8 19:17:48 10° WSW 19:18:37 16° WSW 19:18:37 16° WSW visible
28 Nov -3.9 18:25:25 10° SW 18:28:36 78° S 18:28:36 78° S visible
29 Nov -3.2 17:33:17 10° SSW 17:36:23 41° SE 17:38:31 18° ENE visible
29 Nov -1.1 19:09:54 10° W 19:11:10 19° WNW 19:11:10 19° WNW visible
30 Nov -3.3 18:17:15 10° WSW 18:20:26 50° NNW 18:21:00 43° N visible
01 Dec -3.8 17:24:44 10° WSW 17:28:02 85° NNW 17:30:46 14° NE visible
01 Dec -1.2 19:02:09 10° WNW 19:03:25 17° NW 19:03:25 17° NW visible
